PDT5792 KCLT-KMOB

Flight info

Callsign PDT5792
Flight time N/A
Altitude 34000
Route ESTRR5 IPTAY CHOPZ SMAWG MGM SJI
Aircraft E145/M-SDFGIRW/S

Departure

Time 2026-05-04 15:53
Airport Charlotte Douglas International Airport (KCLT)

Arrival

Time N/A
Airport Mobile Regional Airport (KMOB)
Time Latitude Longitude Altitude Speed Heading
2026-05-04 14:58 35.22545 -80.93967 732 ft 0 kts 284°
2026-05-04 15:37 35.22545 -80.93968 731 ft 0 kts 284°
2026-05-04 15:38 35.22543 -80.93959 732 ft 2 kts 284°
2026-05-04 15:38 35.22541 -80.93941 732 ft 2 kts 262°
2026-05-04 15:38 35.22546 -80.93925 732 ft 2 kts 231°
2026-05-04 15:38 35.22557 -80.93913 732 ft 2 kts 201°
2026-05-04 15:39 35.22572 -80.93910 733 ft 2 kts 174°
2026-05-04 15:39 35.22587 -80.93912 732 ft 2 kts 176°
2026-05-04 15:39 35.22600 -80.93913 732 ft 0 kts 176°
2026-05-04 15:43 35.22593 -80.93913 732 ft 3 kts 177°
2026-05-04 15:44 35.22540 -80.93909 732 ft 11 kts 176°
2026-05-04 15:44 35.22471 -80.93865 733 ft 11 kts 140°
2026-05-04 15:44 35.22398 -80.93828 734 ft 11 kts 126°
2026-05-04 15:44 35.22378 -80.93747 736 ft 10 kts 161°
2026-05-04 15:45 35.22300 -80.93735 736 ft 12 kts 175°
2026-05-04 15:45 35.22211 -80.93728 736 ft 13 kts 175°
2026-05-04 15:45 35.22112 -80.93720 735 ft 15 kts 176°
2026-05-04 15:45 35.21994 -80.93710 733 ft 18 kts 176°
2026-05-04 15:46 35.21869 -80.93699 733 ft 15 kts 175°
2026-05-04 15:46 35.21782 -80.93778 731 ft 18 kts 229°
2026-05-04 15:46 35.21689 -80.93906 726 ft 21 kts 229°
2026-05-04 15:46 35.21581 -80.94052 721 ft 23 kts 227°
2026-05-04 15:47 35.21478 -80.94196 716 ft 22 kts 228°
2026-05-04 15:47 35.21363 -80.94353 709 ft 26 kts 228°
2026-05-04 15:47 35.21231 -80.94535 703 ft 29 kts 229°
2026-05-04 15:47 35.21115 -80.94695 700 ft 21 kts 228°
2026-05-04 15:48 35.21011 -80.94838 699 ft 23 kts 228°
2026-05-04 15:48 35.20965 -80.94945 700 ft 12 kts 304°
2026-05-04 15:48 35.21177 -80.94981 705 ft 19 kts 356°
2026-05-04 15:49 35.21313 -80.94993 708 ft 19 kts 356°
2026-05-04 15:49 35.21446 -80.95004 710 ft 18 kts 355°
2026-05-04 15:49 35.21576 -80.95016 713 ft 18 kts 355°
2026-05-04 15:49 35.21703 -80.95027 716 ft 17 kts 356°
2026-05-04 15:50 35.21822 -80.95036 720 ft 16 kts 356°
2026-05-04 15:50 35.21939 -80.95047 723 ft 17 kts 356°
2026-05-04 15:50 35.22061 -80.95058 725 ft 17 kts 355°
2026-05-04 15:50 35.22189 -80.95068 728 ft 19 kts 356°
2026-05-04 15:51 35.22301 -80.95078 731 ft 9 kts 352°
2026-05-04 15:51 35.22338 -80.95130 733 ft 8 kts 269°
2026-05-04 15:51 35.22336 -80.95171 734 ft 0 kts 266°
2026-05-04 15:52 35.22336 -80.95176 734 ft 1 kts 266°
2026-05-04 15:52 35.22335 -80.95192 734 ft 0 kts 266°
2026-05-04 15:52 35.22331 -80.95240 734 ft 9 kts 261°
2026-05-04 15:52 35.22269 -80.95274 731 ft 13 kts 176°
2026-05-04 15:53 35.21998 -80.95250 726 ft 75 kts 176°
2026-05-04 15:53 35.21251 -80.95186 710 ft 136 kts 176°
2026-05-04 15:53 35.20190 -80.95079 935 ft 159 kts 174°
2026-05-04 15:53 35.19064 -80.94932 1449 ft 170 kts 176°
2026-05-04 15:54 35.17836 -80.94849 1873 ft 194 kts 176°
2026-05-04 15:54 35.16341 -80.94669 1947 ft 238 kts 175°
2026-05-04 15:54 35.14619 -80.94737 2591 ft 250 kts 199°
2026-05-04 15:54 35.13205 -80.95825 3614 ft 245 kts 222°
2026-05-04 15:55 35.11922 -80.97215 4487 ft 250 kts 227°
2026-05-04 15:55 35.11105 -80.99049 5292 ft 253 kts 260°
2026-05-04 15:55 35.11032 -81.01166 6179 ft 256 kts 266°
2026-05-04 15:55 35.10728 -81.03305 7100 ft 258 kts 260°
2026-05-04 15:56 35.10354 -81.05424 8024 ft 259 kts 260°
2026-05-04 15:56 35.09958 -81.07564 8905 ft 260 kts 260°
2026-05-04 15:56 35.09553 -81.09718 9774 ft 262 kts 260°
2026-05-04 15:56 35.09152 -81.11853 10578 ft 265 kts 260°
2026-05-04 15:57 35.08730 -81.14091 11164 ft 276 kts 260°
2026-05-04 15:57 35.08290 -81.16418 11663 ft 285 kts 260°
2026-05-04 15:57 35.07841 -81.18793 11959 ft 297 kts 260°
2026-05-04 15:57 35.07368 -81.21289 12351 ft 304 kts 260°
2026-05-04 15:58 35.06890 -81.23812 12849 ft 307 kts 260°
2026-05-04 15:58 35.06407 -81.26358 13362 ft 309 kts 260°
2026-05-04 15:58 35.05925 -81.28895 13887 ft 310 kts 260°
2026-05-04 15:58 35.05438 -81.31451 14381 ft 312 kts 260°
2026-05-04 15:59 35.04943 -81.34051 14883 ft 314 kts 260°
2026-05-04 15:59 35.04452 -81.36626 15368 ft 316 kts 260°
2026-05-04 15:59 35.03950 -81.39255 15836 ft 318 kts 260°
2026-05-04 15:59 35.03450 -81.41867 16299 ft 320 kts 260°
2026-05-04 16:00 35.02941 -81.44527 16748 ft 322 kts 259°
2026-05-04 16:00 35.02434 -81.47171 17189 ft 324 kts 259°
2026-05-04 16:00 35.01917 -81.49869 17617 ft 327 kts 259°
2026-05-04 16:00 35.01397 -81.52570 18128 ft 326 kts 259°
2026-05-04 16:01 35.00884 -81.55229 18670 ft 324 kts 260°
2026-05-04 16:01 35.00371 -81.57893 19205 ft 323 kts 260°
2026-05-04 16:01 34.99720 -81.60485 19723 ft 324 kts 252°
2026-05-04 16:01 34.98880 -81.63032 20241 ft 322 kts 252°
2026-05-04 16:02 34.98060 -81.65536 20742 ft 321 kts 252°
2026-05-04 16:02 34.97234 -81.68059 21277 ft 319 kts 252°
2026-05-04 16:02 34.95606 -81.73029 22326 ft 315 kts 252°
2026-05-04 16:03 34.94804 -81.75474 22818 ft 314 kts 252°
2026-05-04 16:03 34.93993 -81.77944 23322 ft 312 kts 252°
2026-05-04 16:03 34.93187 -81.80374 23813 ft 312 kts 250°
2026-05-04 16:03 34.92044 -81.82651 24276 ft 315 kts 241°
2026-05-04 16:04 34.90833 -81.84825 24768 ft 313 kts 241°
2026-05-04 16:04 34.88410 -81.89181 25677 ft 310 kts 242°
2026-05-04 16:04 34.87200 -81.91353 26143 ft 308 kts 242°
2026-05-04 16:05 34.86013 -81.93481 26555 ft 307 kts 242°
2026-05-04 16:05 34.84813 -81.95633 26954 ft 306 kts 242°
2026-05-04 16:05 34.82436 -81.99890 27791 ft 303 kts 242°
2026-05-04 16:06 34.81258 -82.01997 28197 ft 302 kts 242°
2026-05-04 16:06 34.78129 -82.07590 29249 ft 298 kts 242°
2026-05-04 16:07 34.76587 -82.10343 29734 ft 297 kts 242°
2026-05-04 16:07 34.73122 -82.16521 30848 ft 294 kts 242°
2026-05-04 16:08 34.71979 -82.18556 31231 ft 293 kts 242°
2026-05-04 16:08 34.68538 -82.24677 32277 ft 291 kts 242°
2026-05-04 16:09 34.66263 -82.28719 32950 ft 289 kts 242°
2026-05-04 16:09 34.63979 -82.32772 33585 ft 289 kts 242°
2026-05-04 16:10 34.61710 -82.36796 34103 ft 291 kts 242°
2026-05-04 16:11 34.58175 -82.43053 34104 ft 307 kts 242°
2026-05-04 16:11 34.56947 -82.45223 34107 ft 312 kts 242°
2026-05-04 16:12 34.53203 -82.51833 34107 ft 325 kts 241°
2026-05-04 16:12 34.49284 -82.58740 34098 ft 338 kts 241°
2026-05-04 16:13 34.43820 -82.68345 34109 ft 353 kts 240°
2026-05-04 16:14 34.38140 -82.78304 34109 ft 367 kts 240°
2026-05-04 16:16 34.30744 -82.91218 34103 ft 381 kts 240°
2026-05-04 16:17 34.23085 -83.04520 34091 ft 392 kts 240°
2026-05-04 16:18 34.16809 -83.15389 34089 ft 398 kts 240°
2026-05-04 16:19 34.08824 -83.29167 34103 ft 402 kts 239°
2026-05-04 16:20 34.00856 -83.42866 34105 ft 400 kts 239°
2026-05-04 16:22 33.92825 -83.56622 34110 ft 405 kts 239°
2026-05-04 16:23 33.83293 -83.73286 34114 ft 399 kts 242°